Location: Recife
(8.0585°S, 34.8848°W)
Time: 22:01:33
(UTC-03:00)

A-11 Canister half - Pass Details

Date: 17 April 2026
Orbit: 1523 x 1684 km, 47.3° (Epoch: 19 May)

Event Time Altitude Azimuth Distance (km) Brightness Sun altitude
Rises 18:16:29 0° 201° (SSW) 4,706 11.7 -15.5°
Reaches altitude 10° 18:20:25 10° 187° (S) 3,740 11.0 -16.5°
Maximum altitude 18:27:37 24° 137° (SE) 2,840 10.0 -18.2°
Enters shadow 18:29:29 23° 121° (ESE) 2,922 9.9 -18.7°
